Waarnemingen

Advertentie
Mijn weer
Bastia, Frankrijk (7790): temperatuur & dauwpunt: 14.02.2019 14:00:00 - 20.02.2019 14:00:00 (CET)Bastia, Frankrijk (7790): temperatuur 5cm: 14.02.2019 14:00:00 - 20.02.2019 14:00:00 (CET)Bastia, Frankrijk (7790): temperatuur -20cm & temperatuur -100cm: 14.02.2019 14:00:00 - 20.02.2019 14:00:00 (CET)Bastia, Frankrijk (7790): windsnelheid & windstoten: 14.02.2019 14:00:00 - 20.02.2019 14:00:00 (CET)Bastia, Frankrijk (7790): windrichting: 14.02.2019 14:00:00 - 20.02.2019 14:00:00 (CET)Bastia, Frankrijk (7790): luchtdruk: 14.02.2019 14:00:00 - 20.02.2019 14:00:00 (CET)Bastia, Frankrijk (7790): zicht: 14.02.2019 14:00:00 - 20.02.2019 14:00:00 (CET)Bastia, Frankrijk (7790): Zonneschijnduur: 14.02.2019 14:00:00 - 20.02.2019 14:00:00 (CET)Bastia, Frankrijk (7790): neerslag: 14.02.2019 14:00:00 - 20.02.2019 14:00:00 (CET)
Datum & Tijd tt [°C] td [°C] tt 5cm [°C] tt -20cm [°C] tt -100cm [°C] ff [km/u] ff [kn] fx [km/u] fx [kn] dd ppp [hPa] vv [km] sd [min] rr [mm]
20.02.2019 14:00:00 - - - - - - - - - - - - - -
20.02.2019 13:00:00 14,6 7,2 23,6 9,4 10,8 16 9 25 14 OZO 1025,1 20 60 0,0
20.02.2019 12:00:00 15,0 7,0 26,1 9,4 10,8 11 6 22 12 O 1025,4 35 60 0,0
20.02.2019 11:00:00 14,8 6,6 20,4 9,4 10,9 4 2 9 5 O 1025,4 20 60 0,0
20.02.2019 10:00:00 12,5 5,2 11,7 9,5 10,9 3 2 16 9 WNW 1025,1 20 58 0,0
20.02.2019 09:00:00 9,8 3,5 5,7 9,5 10,8 13 7 26 14 ZW 1024,8 37 37 0,0
20.02.2019 08:00:00 7,1 2,8 4,7 9,5 10,8 16 9 22 12 ZW 1024,3 30 0 0,0
20.02.2019 07:00:00 7,0 2,9 4,7 9,6 10,8 14 7 23 12 ZW 1023,5 20 0 0,0
20.02.2019 06:00:00 7,1 3,2 4,8 9,5 10,8 18 10 26 14 ZW 1023,3 20 0 0,0
20.02.2019 05:00:00 7,4 3,8 3,0 9,6 10,8 18 10 26 14 ZW 1023,4 20 0 0,0
20.02.2019 04:00:00 6,8 3,8 2,5 9,6 10,8 9 5 17 9 ZW 1023,3 20 0 0,0
20.02.2019 03:00:00 7,4 4,5 0,7 9,6 10,8 10 5 14 8 WZW 1023,6 20 0 0,0
20.02.2019 02:00:00 7,2 4,8 0,1 9,6 10,9 9 5 14 8 WZW 1023,6 20 0 0,0
20.02.2019 01:00:00 6,3 4,5 0,8 9,6 10,9 6 4 10 5 ZW 1023,6 14 0 0,0
20.02.2019 00:00:00 7,6 5,6 2,8 9,5 10,9 7 4 9 5 ZW 1023,5 13 0 0,0
19.02.2019 23:00:00 9,1 6,5 4,1 9,5 10,8 2 1 8 4 WNW 1023,5 10 0 0,0
19.02.2019 22:00:00 9,7 6,8 6,9 9,5 10,8 6 3 9 5 ZZW 1023,5 15 0 0,0
19.02.2019 21:00:00 9,9 6,8 8,0 9,4 10,8 5 3 9 5 ZZW 1023,3 11 0 0,0
19.02.2019 20:00:00 10,0 6,3 6,5 9,4 10,8 5 3 12 6 ZZW 1023,2 11 0 0,0
19.02.2019 19:00:00 11,1 6,2 6,6 9,3 10,9 8 4 14 8 OZO 1022,9 13 0 0,0
19.02.2019 18:00:00 12,1 6,6 10,3 9,2 10,9 9 5 19 10 OZO 1022,4 22 0 0,0
19.02.2019 17:00:00 12,8 6,4 12,4 9,1 10,8 10 5 22 12 ZO 1022,7 33 0 0,0
19.02.2019 16:00:00 13,2 6,3 14,4 9,1 10,9 12 6 23 12 OZO 1022,9 37 0 0,0
19.02.2019 15:00:00 13,6 6,7 16,9 9,0 10,8 16 9 30 16 OZO 1023,0 42 49 0,0
19.02.2019 14:00:00 14,0 6,1 18,0 9,0 10,8 19 10 35 19 OZO 1023,1 29 50 0,0
19.02.2019 13:00:00 14,5 6,1 22,7 9,0 10,8 19 11 36 19 OZO 1023,3 32 60 0,0
19.02.2019 12:00:00 14,3 6,6 22,6 9,1 10,8 20 11 39 21 OZO 1023,9 34 60 0,0
19.02.2019 11:00:00 13,3 6,2 17,6 9,1 10,9 9 5 16 9 ZZO 1024,0 18 60 0,0
19.02.2019 10:00:00 11,5 5,1 9,5 9,1 10,8 8 5 17 9 ZZW 1024,0 34 60 0,0
19.02.2019 09:00:00 8,8 4,8 4,0 9,2 10,8 10 5 18 10 ZW 1024,0 35 60 0,0
19.02.2019 08:00:00 5,9 3,6 1,6 9,2 10,8 11 6 17 9 ZW 1023,8 37 20 0,2
19.02.2019 07:00:00 4,7 2,9 0,7 9,3 10,8 10 6 16 9 ZW 1023,4 20 0 0,0
19.02.2019 06:00:00 4,7 3,4 -0,8 9,4 10,9 10 5 14 7 ZW 1023,4 20 0 0,0
19.02.2019 05:00:00 4,1 2,9 -0,7 9,4 10,8 9 5 12 6 ZW 1023,2 20 0 0,0
19.02.2019 04:00:00 4,4 3,2 -1,2 9,4 10,9 8 5 11 6 ZW 1023,2 20 0 0,0
19.02.2019 03:00:00 4,5 3,5 -1,3 9,5 10,8 9 5 11 6 ZW 1023,8 20 0 0,0
19.02.2019 02:00:00 4,3 3,4 -0,9 9,5 10,9 7 4 12 6 ZW 1024,1 15 0 0,0
19.02.2019 01:00:00 4,5 3,5 -1,0 9,5 10,8 8 4 12 6 ZW 1024,3 15 0 0,2
19.02.2019 00:00:00 4,1 3,2 -1,1 9,5 10,8 7 4 10 6 ZW 1024,4 10 0 0,0
18.02.2019 23:00:00 4,9 4,2 -1,6 9,5 10,8 6 4 9 5 ZW 1024,4 19 0 0,0
18.02.2019 22:00:00 4,5 3,0 -0,9 9,5 10,9 3 2 9 5 Z 1024,5 5 0 0,0
18.02.2019 21:00:00 5,7 4,5 -0,1 9,4 10,8 7 4 11 6 ZW 1024,6 18 0 0,0
18.02.2019 20:00:00 6,6 4,8 0,2 9,4 10,9 2 1 8 5 W 1024,5 11 0 0,0
18.02.2019 19:00:00 9,0 6,1 1,5 9,3 10,9 2 1 11 6 ZZO 1024,5 20 0 0,0
18.02.2019 18:00:00 10,4 6,3 5,6 9,2 10,8 8 4 21 12 ZO 1024,2 45 35 0,0
18.02.2019 17:00:00 12,4 7,5 12,1 9,1 10,8 13 7 26 14 ZO 1024,3 35 60 0,0
18.02.2019 16:00:00 13,1 7,5 18,8 9,1 10,8 16 9 26 14 OZO 1024,6 20 60 0,0
18.02.2019 15:00:00 13,7 7,9 21,3 9,0 10,9 17 9 27 15 OZO 1024,9 45 60 0,0
18.02.2019 14:00:00 14,0 8,0 23,0 9,0 10,8 16 9 28 15 ZO 1025,4 51 60 0,0
18.02.2019 13:00:00 14,0 8,0 23,5 9,0 10,8 16 9 27 14 OZO 1025,9 59 60 0,0
18.02.2019 12:00:00 13,7 7,5 22,3 9,1 10,8 17 9 31 17 OZO 1026,7 60 60 0,0
18.02.2019 11:00:00 13,6 8,0 18,7 9,1 10,9 14 8 26 14 ZO 1026,9 60 60 0,0
18.02.2019 10:00:00 11,6 6,7 8,9 9,1 10,9 5 3 11 6 ZZW 1026,9 45 60 0,0
18.02.2019 09:00:00 8,0 4,8 1,7 9,2 10,9 6 4 11 6 ZZW 1027,1 19 56 0,0
18.02.2019 08:00:00 4,1 2,1 -0,4 9,2 10,9 7 4 14 7 ZZW 1027,1 16 18 0,0
18.02.2019 07:00:00 3,7 1,9 -1,4 9,3 10,9 7 4 13 7 ZW 1026,8 16 0 0,0
18.02.2019 06:00:00 3,9 2,3 -1,1 9,3 10,8 7 4 11 6 ZW 1026,9 12 0 0,0
18.02.2019 05:00:00 4,4 2,6 0,3 9,4 10,9 8 4 12 6 ZW 1027,1 20 0 0,0
18.02.2019 04:00:00 5,0 2,7 -0,1 9,4 10,9 8 5 16 9 ZW 1027,3 20 0 0,0
18.02.2019 03:00:00 5,4 3,2 0,1 9,4 10,8 10 5 16 9 ZW 1027,6 20 0 0,0
18.02.2019 02:00:00 4,6 2,9 -1,7 9,5 10,9 9 5 13 7 ZW 1027,8 20 0 0,0
18.02.2019 01:00:00 4,9 3,2 -1,6 9,5 10,9 7 4 10 5 ZW 1028,2 20 0 0,0
18.02.2019 00:00:00 4,5 3,0 -1,2 9,5 10,9 8 4 10 6 ZW 1028,2 20 0 0,0
17.02.2019 23:00:00 5,0 3,3 -0,8 9,5 10,9 7 4 10 6 ZW 1028,4 20 0 0,0
17.02.2019 22:00:00 5,6 3,4 -0,4 9,4 10,8 8 5 10 6 ZW 1028,4 20 0 0,0
17.02.2019 21:00:00 6,3 3,8 -0,4 9,4 10,9 8 4 11 6 ZW 1028,4 19 0 0,0
17.02.2019 20:00:00 7,2 4,7 -0,2 9,3 10,8 6 3 9 5 ZW 1028,1 20 0 0,0
17.02.2019 19:00:00 8,4 5,1 0,6 9,2 10,9 5 3 9 5 WZW 1028,1 13 0 0,0
17.02.2019 18:00:00 11,3 6,4 3,8 9,2 10,8 5 3 9 5 ZO 1028,0 44 34 0,0
17.02.2019 17:00:00 13,4 6,5 13,0 9,1 10,8 6 3 11 6 OZO 1028,1 45 60 0,0
17.02.2019 16:00:00 14,0 6,6 21,9 9,0 10,8 8 4 13 7 O 1028,3 45 60 0,0
17.02.2019 15:00:00 14,5 7,1 24,9 9,0 10,8 9 5 16 9 O 1028,7 59 60 0,0
17.02.2019 14:00:00 14,6 6,7 26,3 9,0 10,9 9 5 16 9 O 1029,1 60 60 0,0
17.02.2019 13:00:00 14,9 7,7 26,1 9,0 10,8 10 6 18 10 O 1029,5 20 60 0,0
17.02.2019 12:00:00 14,9 6,7 23,9 9,0 10,8 9 5 16 9 O 1030,1 60 60 0,0
17.02.2019 11:00:00 14,4 3,8 17,7 9,1 10,9 6 4 16 9 Z 1030,4 60 60 0,0
17.02.2019 10:00:00 12,2 1,8 11,1 9,2 10,9 10 5 21 12 ZZW 1030,4 60 60 0,0
17.02.2019 09:00:00 9,5 0,9 3,0 9,2 10,8 14 8 23 12 ZW 1030,4 60 60 0,0
17.02.2019 08:00:00 6,4 0,3 0,7 9,2 10,9 12 6 19 10 ZW 1030,3 59 22 0,0
17.02.2019 07:00:00 5,6 0,2 0,0 9,3 10,9 11 6 16 9 ZW 1029,9 20 0 0,0
17.02.2019 06:00:00 4,6 0,2 -1,4 9,3 10,8 10 5 14 8 ZW 1029,8 20 0 0,0
17.02.2019 05:00:00 5,6 0,6 -0,2 9,4 10,9 10 5 17 9 ZW 1029,6 20 0 0,0
17.02.2019 04:00:00 5,3 0,8 -1,3 9,4 10,8 10 5 15 8 ZW 1029,5 20 0 0,0
17.02.2019 03:00:00 4,7 1,4 -1,6 9,4 10,8 9 5 14 7 ZW 1029,8 20 0 0,0
17.02.2019 02:00:00 4,6 2,0 -1,3 9,5 10,9 6 3 13 7 ZW 1030,1 20 0 0,0
17.02.2019 01:00:00 4,7 2,2 -1,6 9,5 10,9 8 4 9 5 ZW 1030,2 20 0 0,0
17.02.2019 00:00:00 5,8 3,3 -1,4 9,5 10,9 6 4 12 6 ZW 1030,1 20 0 0,0
16.02.2019 23:00:00 7,0 4,3 -1,5 9,5 10,9 10 5 17 9 WZW 1030,2 20 0 0,0
16.02.2019 22:00:00 5,7 3,5 -1,3 9,5 10,9 7 4 10 6 ZW 1030,3 13 0 0,0
16.02.2019 21:00:00 6,7 3,7 -1,0 9,4 10,8 4 2 8 4 ZW 1030,2 19 0 0,0
16.02.2019 20:00:00 7,3 4,4 0,0 9,4 10,9 5 3 10 6 ZW 1029,8 20 0 0,0
16.02.2019 19:00:00 8,9 5,8 0,4 9,3 10,9 6 3 8 4 WZW 1029,9 15 0 0,0
16.02.2019 18:00:00 11,1 5,6 3,6 9,2 10,8 3 2 12 7 ZZO 1029,6 56 32 0,0
16.02.2019 17:00:00 13,5 6,8 12,9 9,1 10,9 9 5 13 7 ZO 1029,4 53 60 0,0
16.02.2019 16:00:00 14,5 7,1 21,6 9,1 10,8 7 4 17 9 OZO 1029,7 45 60 0,0
16.02.2019 15:00:00 15,0 7,0 24,5 9,0 10,8 11 6 17 9 OZO 1029,8 20 60 0,0
16.02.2019 14:00:00 15,3 7,1 25,9 9,0 10,8 12 7 21 11 OZO 1030,4 60 60 0,0
16.02.2019 13:00:00 15,5 6,8 27,5 9,0 10,9 8 4 18 10 OZO 1030,9 19 60 0,0
16.02.2019 12:00:00 15,6 5,8 25,4 9,1 10,9 8 5 16 9 NO 1031,4 51 60 0,0
16.02.2019 11:00:00 15,6 4,9 18,2 9,1 10,9 4 2 14 8 Z 1031,3 56 60 0,0
16.02.2019 10:00:00 12,6 3,0 11,4 9,1 10,9 10 5 19 10 ZZW 1031,2 60 60 0,0
16.02.2019 09:00:00 9,4 1,3 0,1 9,2 10,9 14 8 25 13 ZZW 1031,1 33 60 0,0
16.02.2019 08:00:00 6,6 -0,2 -1,1 9,2 10,9 4 2 16 8 ZZW 1030,6 57 21 0,0
16.02.2019 07:00:00 4,2 0,2 -0,7 9,2 10,8 8 5 13 7 ZW 1029,9 20 0 0,0
16.02.2019 06:00:00 5,1 -0,5 -0,1 9,3 10,9 9 5 15 8 ZZW 1029,9 20 0 0,0
16.02.2019 05:00:00 5,4 0,2 1,4 9,3 10,9 10 5 22 12 ZZW 1029,7 20 0 0,0
16.02.2019 04:00:00 5,0 0,9 1,7 9,3 10,8 11 6 18 10 ZZW 1029,7 20 0 0,0
16.02.2019 03:00:00 5,9 1,2 1,6 9,4 10,9 11 6 21 11 ZZW 1030,1 20 0 0,0
16.02.2019 02:00:00 6,4 1,7 2,2 9,4 10,9 10 5 19 11 ZZW 1030,7 20 0 0,0
16.02.2019 01:00:00 6,7 2,0 1,0 9,4 10,9 11 6 19 10 ZZW 1030,7 20 0 0,0
16.02.2019 00:00:00 6,1 2,2 1,0 9,4 10,9 7 4 17 9 ZW 1030,7 20 0 0,0
15.02.2019 23:00:00 5,9 3,1 0,1 9,4 10,9 8 4 13 7 ZZW 1030,4 20 0 0,0
15.02.2019 22:00:00 5,8 3,5 -0,7 9,3 10,9 7 4 10 5 ZZW 1030,3 20 0 0,0
15.02.2019 21:00:00 6,9 4,7 -0,1 9,3 10,9 5 3 13 7 ZZW 1029,7 20 0 0,0
15.02.2019 20:00:00 7,7 5,7 0,4 9,2 10,9 7 4 16 9 WZW 1029,5 16 0 0,0
15.02.2019 19:00:00 8,5 6,1 1,1 9,1 10,9 9 5 16 8 O 1029,0 20 0 0,0
15.02.2019 18:00:00 11,5 6,8 4,6 9,0 10,9 2 1 18 10 Z 1028,2 19 31 0,0
15.02.2019 17:00:00 13,4 7,6 12,7 9,0 10,9 12 7 22 12 NNW 1028,7 54 60 0,0
15.02.2019 16:00:00 14,2 8,2 18,3 8,9 10,9 18 10 24 13 N 1028,5 45 60 0,0
15.02.2019 15:00:00 15,0 9,8 23,2 8,9 10,9 11 6 19 11 NO 1028,4 47 60 0,0
15.02.2019 14:00:00 15,0 9,4 23,6 8,9 10,9 11 6 22 12 N 1029,4 57 60 0,0
15.02.2019 13:00:00 14,6 8,5 23,8 8,9 10,9 11 6 21 12 N 1030,1 60 60 0,0
15.02.2019 12:00:00 14,6 9,2 23,8 8,9 10,9 11 6 17 9 NO 1030,8 60 60 0,0
15.02.2019 11:00:00 14,8 7,8 18,4 8,9 10,9 4 2 18 10 NNO 1031,0 20 60 0,0
15.02.2019 10:00:00 12,7 4,4 12,4 9,0 10,9 8 5 13 7 ZZW 1031,0 60 60 0,0
15.02.2019 09:00:00 9,5 2,1 0,5 9,0 10,9 7 4 14 7 ZZW 1031,2 49 60 0,0
15.02.2019 08:00:00 6,1 -0,4 -0,9 9,1 10,9 7 4 11 6 ZW 1031,2 60 19 0,0
15.02.2019 07:00:00 4,1 -0,3 -1,0 9,1 10,9 9 5 14 8 ZW 1030,9 20 0 0,0
15.02.2019 06:00:00 6,4 -0,1 -0,9 9,1 10,9 7 4 16 9 WZW 1031,2 20 0 0,0
15.02.2019 05:00:00 6,6 0,3 1,9 9,1 10,9 11 6 25 14 WZW 1030,9 20 0 0,0
15.02.2019 04:00:00 6,1 0,8 1,4 9,2 10,9 10 6 19 10 ZZW 1031,1 20 0 0,0
15.02.2019 03:00:00 6,6 2,1 -0,2 9,2 10,9 10 5 17 9 ZW 1032,1 60 0 0,0
15.02.2019 02:00:00 4,1 0,4 -0,5 9,2 10,9 8 4 13 7 N 1031,8 29 0 0,0
15.02.2019 01:00:00 7,1 1,8 -0,4 9,2 10,9 7 4 16 9 ZW 1031,4 58 0 0,0
15.02.2019 00:00:00 7,3 2,4 0,6 9,2 10,9 11 6 18 10 ZZW 1031,3 60 0 0,0
14.02.2019 23:00:00 7,0 2,5 -0,5 9,2 10,9 7 4 10 6 WZW 1032,3 20 0 0,0
14.02.2019 22:00:00 6,6 2,9 1,3 9,2 10,9 6 3 20 11 WNW 1031,9 19 0 0,0
14.02.2019 21:00:00 6,4 3,2 -0,9 9,1 10,9 10 5 18 10 ZZW 1031,8 20 0 0,0
14.02.2019 20:00:00 6,8 3,8 -0,2 9,1 10,9 2 1 11 6 WZW 1032,1 20 0 0,0
14.02.2019 19:00:00 8,8 4,2 0,4 9,0 10,9 8 4 10 5 ZW 1032,2 18 0 0,0
14.02.2019 18:00:00 11,3 4,5 2,8 8,9 10,9 4 2 7 4 ZZW 1031,8 14 30 0,0
14.02.2019 17:00:00 14,2 4,5 12,0 8,9 10,9 2 1 14 8 NNO 1032,0 57 60 0,0
14.02.2019 16:00:00 14,1 5,2 18,6 8,9 10,9 11 6 23 12 NNW 1032,3 60 60 0,0
14.02.2019 15:00:00 14,7 7,3 21,1 8,8 10,9 16 8 23 13 N 1032,6 60 60 0,0
14.02.2019 14:00:00 16,0 3,1 24,4 8,8 10,9 11 6 17 9 N 1033,0 60 60 0,0

tt = temperatuur
td = dauwpunt
tt 5cm = temperatuur 5cm
tt -20cm = temperatuur -20cm
tt -100cm = temperatuur -100cm
ff = windsnelheid
fx = windstoten
dd = windrichting
ppp = luchtdruk
vv = zicht
sd = Zonneschijnduur
rr = neerslag

Weerstations in de omgeving